Home   Weather   Amarillo   Past weeks

Flag for USA Past Weather in Amarillo, Texas, USA — Yesterday and Last 2 Weeks

Now
70 °F

Passing clouds.


Feels Like: 69 °F
Forecast: 64 / 87 °F
Wind: 9 mph from North

Location: Amarillo International Airport

Current Time: Aug 18, 2017 at 6:14:47 am

Latest Report: Aug 18, 2017 at 4:53 am


Visibility: 10 mi

Pressure: 29.96 "Hg (26.31 "Hg at 1117m altitude)

Humidity: 84%

Dew Point: 65 °F

Location of AmarilloLocation

Past Weather in Amarillo — Graph

°F

Amarillo Temperature Yesterday

Maximum temperature yesterday: 89 °F (at 4:53 pm)
Minimum temperature yesterday: 63 °F (at 7:53 am)
Average temperature yesterday: 76 °F

High & Low Weather Summary for the Past Weeks

 TemperatureHumidityPressure
High94 °F (Aug 5, 3:53 pm)100% (Aug 7, 3:34 pm)30.28 "Hg (Aug 7, 3:34 pm)
Low59 °F (Aug 4, 6:53 am)29% (Aug 5, 4:53 pm)29.65 "Hg (Aug 5, 6:53 pm)
Average72 °F77%29.98 "Hg
* Reported Aug 3 4:53 am — Aug 18 4:53 am, Amarillo. Weather by CustomWeather, © 2017

Note: Actual official high and low records may vary slightly from our data, if they occured in-between our weather recording intervals... More about our weather records

Advertising

Amarillo Weather History for the Previous 24 Hours

Scroll right to see more
 ConditionsComfort  
Time TempWeatherWind HumidityBarometerVisibility
4:53 am
Fri, Aug 18
70 °FPassing clouds.9 mph84%29.96 "Hg10 mi
4:26 am70 °FPassing clouds.17 mph84%30.09 "Hg10 mi
3:53 am68 °FClear.13 mph87%29.91 "Hg10 mi
2:53 am69 °FClear.14 mph84%29.91 "Hg10 mi
1:53 am70 °FClear.16 mph81%29.92 "Hg10 mi
12:53 am72 °FClear.15 mph78%29.94 "Hg10 mi
11:53 pm
Thu, Aug 17
73 °FClear.16 mph76%29.94 "Hg10 mi
10:53 pm74 °FClear.16 mph74%29.96 "Hg10 mi
9:53 pm74 °FClear.15 mph71%29.94 "Hg10 mi
8:53 pm71 °FClear.15 mph66%29.95 "Hg10 mi
7:53 pm81 °FThundershowers. Broken clouds.13 mph62%29.92 "Hg9 mi
6:53 pm85 °FSunny.13 mph46%29.90 "Hg10 mi
5:53 pm88 °FSunny.14 mph42%29.90 "Hg10 mi
4:53 pm89 °FSunny.17 mph42%29.92 "Hg10 mi
3:53 pm88 °FPassing clouds.15 mph46%29.95 "Hg10 mi
2:53 pm87 °FSunny.13 mph45%29.96 "Hg10 mi
1:53 pm86 °FPassing clouds.9 mph46%29.99 "Hg10 mi
12:53 pm84 °FSunny.13 mph46%30.00 "Hg10 mi
11:53 am82 °FSunny.9 mph48%30.01 "Hg10 mi
10:53 am80 °FSunny.10 mph52%30.01 "Hg10 mi
9:53 am77 °FSunny.7 mph62%30.01 "Hg10 mi
8:53 am70 °FSunny.8 mph76%30.03 "Hg10 mi
7:53 am63 °FSunny.7 mph90%30.01 "Hg10 mi
6:53 am66 °FClear.6 mph78%29.97 "Hg10 mi
Weather by CustomWeather, © 2017

See weather overviewHow to use our weather pages